Weather History for PAMH - October, 2012

Change the Weather History Date:

Saturday, October 13, 2012

  Actual Average Record
Temperature  
Mean Temperature 22 °F -  
Max Temperature 28 °F 27 °F 42 °F (2013)
Min Temperature 15 °F 17 °F 6 °F (2001)
Degree Days  
Heating Degree Days 44    
Moisture  
Dew Point 10 °F    
Average Humidity 61    
Maximum Humidity 79    
Minimum Humidity 47    
Precipitation  
Precipitation 0.00 in - - ()
Sea Level Pressure  
Sea Level Pressure 29.38 in    
Wind  
Wind Speed 2 mph (NNE)    
Max Wind Speed 6 mph    
Max Gust Speed -    
Visibility 10 miles    
Events      
Averages and records for this station are not official NWS values.
T = Trace of Precipitation, MM = Missing Value Source: NWS Daily Summary

Daily Weather History Graph

Daily Weather History Graph

Search for Another Location

Airport or City:

Trip Planner

Search our weather history database for the weather conditions in past years. The results will help you decide how hot, cold, wet, or windy it might be!

Date:

Astronomy

Oct. 13, 2012 Rise Set
Actual Time 8:54 AM AKDT 6:54 PM AKDT
Civil Twilight 8:06 AM AKDT 7:42 PM AKDT
Nautical Twilight 7:12 AM AKDT 8:36 PM AKDT
Astronomical Twilight 6:15 AM AKDT 9:32 PM AKDT
Moon 6:30 AM AKDT (10/13) 5:58 PM AKDT (10/13)
Length of Visible Light 11h 35m
Length of Day
9h 59m
Waning Crescent, 4% of the Moon is Illuminated
Oct 13
Waning Crescent
Oct 15
New
Oct 21
First Quarter
Oct 29
Full
Nov 6
Last Quarter

Hourly Weather History & Observations

Time (AKDT) Temp. Windchill Dew Point Humidity Pressure Visibility Wind Dir Wind Speed Gust Speed Precip Events Conditions
12:16 AM 19.4 °F 12.8 °F 10.4 °F 68% 29.41 in 10.0 mi NNE 4.6 mph - N/A   Clear
12:36 AM 19.4 °F - 10.4 °F 68% 29.41 in 10.0 mi Calm Calm - N/A   Clear
12:56 AM 17.6 °F - 10.4 °F 73% 29.41 in 10.0 mi Calm Calm - N/A   Clear
1:16 AM 17.6 °F 12.3 °F 10.4 °F 73% 29.41 in 10.0 mi NNE 3.5 mph - N/A   Clear
1:36 AM 17.6 °F - 10.4 °F 73% 29.40 in 10.0 mi Calm Calm - N/A   Clear
2:16 AM 15.8 °F - 10.4 °F 79% 29.39 in 10.0 mi Calm Calm - N/A   Clear
2:36 AM 17.6 °F - 10.4 °F 73% 29.38 in 10.0 mi Calm Calm - N/A   Clear
2:56 AM 17.6 °F - 10.4 °F 73% 29.38 in 10.0 mi Calm Calm - N/A   Clear
3:16 AM 17.6 °F - 10.4 °F 73% 29.38 in 10.0 mi Calm Calm - N/A   Clear
3:36 AM 19.4 °F 14.3 °F 10.4 °F 68% 29.37 in 10.0 mi North 3.5 mph - N/A   Scattered Clouds
3:56 AM 19.4 °F 14.3 °F 10.4 °F 68% 29.37 in 10.0 mi NNE 3.5 mph - N/A   Overcast
4:16 AM 19.4 °F - 10.4 °F 68% 29.37 in 10.0 mi Calm Calm - N/A   Overcast
4:56 AM 19.4 °F - 10.4 °F 68% 29.37 in 10.0 mi Calm Calm - N/A   Overcast
5:16 AM 19.4 °F - 10.4 °F 68% 29.36 in 10.0 mi Calm Calm - N/A   Overcast
5:36 AM 19.4 °F - 10.4 °F 68% 29.36 in 10.0 mi Calm Calm - N/A   Overcast
5:56 AM 19.4 °F - 10.4 °F 68% 29.36 in 10.0 mi Calm Calm - N/A   Overcast
6:56 AM 19.4 °F 14.3 °F 10.4 °F 68% 29.37 in 10.0 mi North 3.5 mph - N/A   Overcast
7:16 AM 19.4 °F - 10.4 °F 68% 29.36 in 10.0 mi Calm Calm - N/A   Overcast
7:36 AM 19.4 °F - 10.4 °F 68% 29.37 in 10.0 mi Calm Calm - N/A   Overcast
7:56 AM 17.6 °F - 10.4 °F 73% 29.37 in 10.0 mi Calm Calm - N/A   Mostly Cloudy
8:16 AM 17.6 °F - 10.4 °F 73% 29.37 in 10.0 mi Calm Calm - N/A   Partly Cloudy
8:36 AM 19.4 °F 14.3 °F 10.4 °F 68% 29.37 in 10.0 mi North 3.5 mph - N/A   Clear
8:56 AM 17.6 °F - 10.4 °F 73% 29.37 in 10.0 mi Calm Calm - N/A   Clear
9:16 AM 17.6 °F - 10.4 °F 73% 29.38 in 10.0 mi Calm Calm - N/A   Clear
9:36 AM 19.4 °F 14.3 °F 10.4 °F 68% 29.38 in 10.0 mi NNE 3.5 mph - N/A   Clear
9:56 AM 19.4 °F 12.8 °F 8.6 °F 63% 29.38 in 10.0 mi North 4.6 mph - N/A   Clear
10:16 AM 19.4 °F 12.8 °F 10.4 °F 68% 29.38 in 10.0 mi NNE 4.6 mph - N/A   Clear
10:36 AM 19.4 °F - 10.4 °F 68% 29.38 in 10.0 mi Calm Calm - N/A   Clear
10:56 AM 21.2 °F 16.4 °F 10.4 °F 63% 29.38 in 10.0 mi North 3.5 mph - N/A   Clear
11:16 AM 21.2 °F 16.4 °F 8.6 °F 58% 29.38 in 10.0 mi NE 3.5 mph - N/A   Clear
11:36 AM 21.2 °F 14.9 °F 8.6 °F 58% 29.38 in 10.0 mi NNE 4.6 mph - N/A   Clear
11:56 AM 21.2 °F 16.4 °F 10.4 °F 63% 29.38 in 10.0 mi NNE 3.5 mph - N/A   Clear
12:36 PM 24.8 °F 19.1 °F 10.4 °F 54% 29.38 in 10.0 mi NE 4.6 mph - N/A   Scattered Clouds
1:16 PM 26.6 °F 21.2 °F 10.4 °F 51% 29.38 in 10.0 mi NE 4.6 mph - N/A   Mostly Cloudy
1:36 PM 26.6 °F 22.6 °F 10.4 °F 51% 29.37 in 10.0 mi NNE 3.5 mph - N/A   Scattered Clouds
1:56 PM 26.6 °F 21.2 °F 10.4 °F 51% 29.37 in 10.0 mi NNE 4.6 mph - N/A   Clear
2:16 PM 26.6 °F 21.2 °F 10.4 °F 51% 29.37 in 10.0 mi NE 4.6 mph - N/A   Mostly Cloudy
2:36 PM 26.6 °F - 10.4 °F 51% 29.37 in 10.0 mi Calm Calm - N/A   Scattered Clouds
2:56 PM 28.4 °F - 10.4 °F 47% 29.37 in 10.0 mi Calm Calm - N/A   Partly Cloudy
3:16 PM 28.4 °F 24.6 °F 10.4 °F 47% 29.37 in 10.0 mi NE 3.5 mph - N/A   Clear
3:36 PM 26.6 °F 21.2 °F 10.4 °F 51% 29.36 in 10.0 mi NE 4.6 mph - N/A   Clear
3:56 PM 28.4 °F 23.3 °F 10.4 °F 47% 29.36 in 10.0 mi NE 4.6 mph - N/A   Clear
4:16 PM 28.4 °F 23.3 °F 10.4 °F 47% 29.37 in 10.0 mi NNE 4.6 mph - N/A   Clear
4:36 PM 26.6 °F 20.0 °F 10.4 °F 51% 29.37 in 10.0 mi NNE 5.8 mph - N/A   Clear
4:56 PM 26.6 °F 22.6 °F 10.4 °F 51% 29.37 in 10.0 mi NE 3.5 mph - N/A   Clear
5:56 PM 26.6 °F 22.6 °F 8.6 °F 47% 29.37 in 10.0 mi NE 3.5 mph - N/A   Clear
6:16 PM 26.6 °F 22.6 °F 8.6 °F 47% 29.38 in 10.0 mi NNE 3.5 mph - N/A   Clear
6:36 PM 26.6 °F 21.2 °F 8.6 °F 47% 29.38 in 10.0 mi NE 4.6 mph - N/A   Clear
6:56 PM 24.8 °F - 10.4 °F 54% 29.38 in 10.0 mi Calm Calm - N/A   Partly Cloudy
7:16 PM 24.8 °F - 8.6 °F 50% 29.38 in 10.0 mi Calm Calm - N/A   Partly Cloudy
8:16 PM 24.8 °F - 8.6 °F 50% 29.38 in 10.0 mi Calm Calm - N/A   Overcast
8:36 PM 24.8 °F - 8.6 °F 50% 29.38 in 10.0 mi Calm Calm - N/A   Overcast
9:16 PM 23.0 °F - 8.6 °F 54% 29.38 in 10.0 mi Calm Calm - N/A   Overcast
9:36 PM 23.0 °F - 8.6 °F 54% 29.38 in 10.0 mi Calm Calm - N/A   Overcast
9:56 PM 23.0 °F - 8.6 °F 54% 29.38 in 10.0 mi Calm Calm - N/A   Overcast
10:16 PM 21.2 °F - 8.6 °F 58% 29.38 in 10.0 mi Calm Calm - N/A   Overcast
10:36 PM 21.2 °F - 8.6 °F 58% 29.38 in 10.0 mi Calm Calm - N/A   Overcast
10:56 PM 21.2 °F - 8.6 °F 58% 29.38 in 10.0 mi Calm Calm - N/A   Overcast
11:16 PM 21.2 °F - 8.6 °F 58% 29.38 in 10.0 mi Calm Calm - N/A   Overcast
11:36 PM 21.2 °F - 8.6 °F 58% 29.37 in 10.0 mi Calm Calm - N/A   Overcast
11:56 PM 21.2 °F - 8.6 °F 58% 29.37 in 10.0 mi Calm Calm - N/A   Mostly Cloudy